Simultaneous Nadir Overpasses (SNOs) Predictions

Prediction of SNOs between AURA and NPP Satellite Orbit:

Table of predicted SNOs for the next 14.0 days since TLE Epoch: 8/31/2013
Index Date (AURA) Time (AURA) Lat,Lon (AURA) SZA (AURA ) Date (NPP) Time (NPP) Lat,Lon (NPP) SZA (NPP ) Distance(km) Time Diff (sec)
1 08/31/2013 03:41:42 79.30, 19.99 84.25 08/31/2013 03:42:08 79.31, 20.04 84.22 1.22 26
2 09/02/2013 19:08:46 -79.12, -32.95 94.58 09/02/2013 19:08:26 -79.11, -32.98 94.56 0.67 20
3 09/02/2013 19:58:06 79.35, 136.18 85.11 09/02/2013 19:59:04 79.35, 136.09 85.08 1.84 58
4 09/05/2013 10:35:51 78.86, -86.20 86.69 09/05/2013 10:34:46 78.85, -86.31 86.76 2.50 65
5 09/05/2013 11:25:10 -79.19, 83.38 93.75 09/05/2013 11:25:22 -79.18, 83.32 93.75 1.41 12
6 09/08/2013 02:52:12 79.04, 30.72 87.39 09/08/2013 02:51:39 79.03, 30.68 87.43 1.03 33
7 09/08/2013 03:41:32 -79.32,-159.88 92.99 09/08/2013 03:42:16 -79.32,-159.87 93.03 0.29 44
8 09/10/2013 19:08:33 79.19, 147.56 88.13 09/10/2013 19:08:32 79.20, 147.68 88.11 2.86 1
9 09/10/2013 19:56:01 -81.85, -2.56 98.35 09/10/2013 19:57:14 -81.25, -2.48 98.67 66.18 73
10 09/13/2013 10:35:37 -78.94, 94.29 90.58 09/13/2013 10:34:52 -78.93, 94.20 90.53 2.31 45




NCC Satellite Simultaneous Nadir Overpasses (SNOs) Prediction Service
